Location: Ferchesar
(52.6477°N, 12.4298°E)
Time: 08:41:56
(UTC+01:00)

Vanguard 3 - Pass Details

Date: 06 December 2021
Orbit: 508 x 3260 km, 33.3° (Epoch: 25 January)

Event Time Altitude Azimuth Distance (km) Brightness Sun altitude
Exits shadow 00:58:34 15° 126° (SE) 5,765 11.3 -57.9°
Drops below altitude 10° 01:05:04 10° 107° (ESE) 6,132 11.6 -57.5°
Sets 01:12:36 0° 89° (E) 6,901 12.1 -56.9°
